SCP
1 1 1 1 1 1 1 1 0 0 0 0 0 0 0 0 0 0 0 0 0 0 0 0 0 0 0 0 1 1 1 1 1 1 1 1 1 1 1 2 1 1 1
1 1 1 1 1 1 1 1 1 0 0 0 0 0 0 0 0 0 0 0 0 0 0 0 0 0 0 0 0 1 1 1 1 1 1 1 1 1 1 1 1 1 1
1 1 1 0 1 1 1 1 1 0 0 0 0 0 0 0 0 0 0 0 0 0 0 0 0 0 0 0 0 0 0 1 1 1 1 1 1 1 1 1 1 1 1
1 0 0 0 0 0 0 1 0 0 0 0 0 0 0 0 0 0 0 0 0 0 0 0 0 0 0 0 0 0 0 1 1 1 1 1 1 1 1 1 1 1 1
0 0 0 0 0 0 0 0 0 0 0 0 0 0 0 0 0 0 0 0 0 0 0 0 0 0 0 0 0 0 1 1 1 1 1 1 1 1 1 1 1 1 1
0 0 0 0 0 0 0 0 0 0 0 0 0 0 0 0 0 0 0 0 0 0 0 0 0 0 0 0 0 0 0 1 1 1 1 1 1 1 1 1 1 1 1
0 0 0 0 0 0 0 0 0 0 0 0 0 0 0 0 0 0 0 0 0 0 0 0 0 0 0 0 0 0 0 0 0 1 1 1 1 1 1 1 1 1 1
0 0 0 0 0 0 0 0 0 0 0 0 0 0 0 0 0 0 0 0 0 0 0 0 0 0 0 0 0 0 0 0 0 0 0 0 0 1 1 1 1 1 1
0 0 0 0 0 0 0 0 0 0 0 0 0 0 0 0 0 0 0 0 0 0 0 0 0 0 0 0 0 0 0 0 0 0 0 0 0 1 1 1 1 1 1
0 0 0 0 0 0 0 0 0 0 0 0 0 0 0 0 0 0 0 0 0 0 0 0 0 0 0 0 0 0 0 0 0 0 0 0 0 1 1 1 1 1 1
0 0 0 0 0 0 0 0 0 0 0 0 0 0 0 0 0 0 0 0 0 0 0 0 0 0 0 0 0 0 0 0 0 0 0 0 0 0 1 1 1 1 1
0 0 0 0 0 0 0 0 0 0 0 0 0 0 0 0 0 0 0 0 0 0 0 0 0 0 0 0 0 0 0 0 0 0 0 0 0 0 0 1 1 1 1
0 0 0 0 0 0 0 0 0 0 0 0 0 0 0 0 0 0 0 0 0 0 0 0 0 0 0 0 0 0 0 0 0 0 0 0 0 0 0 0 1 1 1
0 0 0 0 0 0 0 0 0 0 0 0 0 0 0 0 0 0 0 0 0 0 0 0 0 0 0 0 0 0 0 0 0 0 0 0 0 0 0 0 0 0 0
0 0 0 0 0 0 0 0 0 0 0 0 0 0 0 0 0 0 0 0 0 0 0 0 0 0 0 0 0 0 0 0 0 0 0 0 0 0 0 0 0 0 0
0 0 0 0 0 0 0 0 0 0 0 0 0 0 0 0 0 0 0 0 0 0 0 0 0 0 0 0 0 0 0 0 0 0 0 0 0 0 0 0 0 0 0
0 0 0 0 0 0 0 0 0 0 0 0 0 0 0 0 0 0 0 0 0 0 0 0 0 0 0 0 0 0 0 0 0 0 0 0 0 0 0 0 0 0 0
0 0 0 0 0 0 0 0 0 0 0 0 0 0 0 0 0 0 0 0 0 0 0 0 0 0 0 0 0 0 0 0 0 0 0 0 0 0 0 0 0 0 0
0 0 0 0 0 0 0 0 0 0 0 0 0 0 0 0 0 0 0 0 0 0 0 0 0 0 0 0 0 0 0 0 0 0 0 0 0 0 0 0 0 0 0
0 0 0 0 0 0 0 0 0 0 0 0 0 0 0 0 0 0 0 0 0 0 0 0 0 0 0 0 0 0 0 0 0 0 0 0 0 0 0 0 0 0 0
0 0 0 0 0 0 0 0 0 0 0 0 0 0 0 0 0 0 0 0 0 0 0 0 0 0 0 0 0 0 0 0 0 0 0 0 0 0 0 0 0 0 0
0 0 0 0 0 0 0 0 0 0 0 0 0 0 0 0 0 0 0 0 0 0 0 0 0 0 0 0 0 0 0 0 0 0 0 0 0 0 0 0 0 0 0
0 0 0 0 0 0 0 0 0 0 0 0 0 0 0 0 0 0 0 0 0 0 0 0 0 0 0 0 0 0 0 0 0 0 0 0 0 0 0 0 0 0 0
0 0 0 0 0 0 0 0 0 0 0 0 0 0 0 0 0 0 0 0 0 0 0 0 0 0 0 0 0 0 0 0 0 0 0 0 0 0 0 0 0 0 0
0 0 0 0 0 0 0 0 0 0 0 0 0 0 0 0 0 0 0 0 0 0 0 0 0 0 0 0 0 0 0 0 0 0 0 0 0 0 0 0 0 0 0
0 0 0 0 0 0 0 0 0 0 0 0 0 0 0 0 0 0 0 0 0 0 0 0 0 0 0 0 0 0 0 0 0 0 0 0 0 0 0 0 0 0 0
Wind_Speed
2 2 2 2 2 2 2 2 1 2 2 3 2 3 3 3 2 2 3 6 6 7 7 8 8 8 8 8 8 8 8 7 7 7 7 6 6 6 6 6 6 6 7
3 3 2 2 2 2 2 2 2 2 2 2 2 3 3 3 3 3 3 4 7 8 8 8 9 9 9 9 9 9 9 9 9 8 8 7 6 6 6 6 6 6 6
3 3 2 2 3 3 3 2 3 2 2 2 3 3 2 3 3 3 3 2 3 6 8 8 9 9 10 10 10 10 9 9 9 9 9 9 8 7 6 6 6 6 6
4 3 2 2 3 3 3 2 2 2 2 2 2 2 2 2 3 3 3 3 3 3 5 7 8 8 9 10 10 10 10 10 10 9 9 9 8 8 8 7 7 7 7
4 3 2 3 3 3 3 3 3 2 2 2 1 1 1 1 1 3 3 4 3 3 2 4 6 7 8 10 11 11 11 11 11 10 10 9 9 9 8 8 8 8 8
4 3 2 3 3 3 3 3 3 3 2 2 2 1 1 0 1 2 2 2 3 3 3 3 3 4 8 10 11 12 12 12 11 11 10 10 10 10 9 9 8 8 8
4 3 3 2 3 2 3 3 3 3 2 2 2 2 1 1 2 2 2 2 2 2 3 3 3 3 3 8 10 11 12 12 12 11 11 11 11 10 9 9 9 9 9
3 3 3 2 3 2 3 3 3 2 2 2 2 1 2 1 1 1 1 1 1 2 2 3 3 3 2 2 6 10 11 12 12 11 11 11 11 11 11 11 11 10 10
2 2 3 2 2 2 2 2 2 2 2 2 2 1 1 1 2 1 1 1 1 1 1 1 2 2 3 2 2 6 10 11 12 12 11 11 11 11 11 11 11 10 10
1 1 1 2 2 2 1 1 2 1 1 2 2 1 0 0 1 2 2 0 0 0 1 1 1 1 2 1 3 6 9 10 11 12 11 11 11 11 11 11 11 11 10
1 0 1 1 1 1 1 2 1 1 1 1 1 1 2 1 1 1 2 2 2 1 0 1 0 0 1 1 1 5 8 10 11 11 12 11 11 11 11 11 11 11 11
1 1 0 0 1 1 1 1 1 1 1 1 1 1 1 1 1 1 2 2 3 2 1 1 1 1 0 1 2 6 8 9 10 11 11 11 11 11 12 12 12 12 11
1 2 1 1 0 0 1 1 1 1 1 1 1 1 0 1 1 1 1 2 3 3 2 1 1 1 1 1 1 5 7 9 10 11 11 11 11 11 11 11 11 12 11
1 2 2 1 1 1 1 1 1 1 1 1 1 1 1 1 1 1 1 1 3 3 2 2 1 1 0 0 2 5 4 8 9 10 10 10 10 10 10 10 11 11 11
1 2 2 2 2 2 2 1 1 2 1 1 2 2 2 1 1 1 1 1 1 2 3 1 0 0 1 0 3 2 3 8 10 10 10 9 9 9 9 10 10 10 10
2 2 2 3 2 2 2 2 2 2 2 2 1 2 2 2 2 1 1 1 1 2 3 2 1 2 2 2 4 3 4 9 9 10 10 9 9 9 9 9 9 9 10
3 3 3 3 3 3 3 3 3 3 3 3 2 2 3 2 2 2 2 2 2 2 4 4 2 2 2 3 4 3 4 3 4 9 10 9 9 9 9 9 9 9 10
3 3 3 3 3 3 3 3 4 3 3 3 3 3 3 2 3 2 2 3 3 3 4 5 4 3 3 3 3 4 4 4 3 8 9 9 9 9 9 9 9 9 9
3 3 3 4 4 3 3 4 4 4 4 4 4 4 3 3 4 3 3 3 3 3 3 4 4 3 3 2 3 4 4 3 5 5 7 7 8 9 9 9 9 9 9
3 3 3 4 4 4 4 3 3 3 3 4 4 4 4 4 4 4 4 4 3 3 3 3 4 3 3 3 2 3 4 3 4 4 5 6 8 9 10 10 9 9 9
3 3 3 3 3 3 3 3 3 3 3 4 4 4 4 5 6 5 4 3 3 3 3 3 4 3 3 2 2 2 3 4 4 2 2 3 4 3 4 7 8 9 10
3 3 3 3 3 3 5 6 4 3 4 4 5 4 4 5 7 9 10 8 6 5 4 4 4 4 4 3 2 2 2 3 4 2 3 5 3 3 3 2 7 10 10
3 3 4 4 4 5 6 7 7 4 4 4 4 4 4 4 6 4 7 9 9 11 9 5 5 5 4 3 2 3 3 3 4 3 3 5 3 3 3 4 9 10 10
3 3 4 4 4 5 7 7 7 4 4 5 5 5 4 4 4 5 4 4 5 6 7 5 5 5 4 3 2 3 3 3 4 3 2 3 3 3 4 3 8 8 8
3 3 3 4 4 5 7 7 6 3 4 5 5 4 5 5 8 8 5 5 5 5 7 9 9 8 8 8 4 1 1 2 4 3 1 2 2 3 4 3 4 7 9
4 3 4 4 5 5 7 8 7 3 4 4 4 4 7 7 8 9 5 5 6 5 4 4 5 6 5 6 7 3 3 3 3 3 1 1 2 3 4 3 2 3 5
Wind_Direction
51 35 38 33 19 359 352 338 346 3 360 6 6 6 2 9 30 64 83 76 64 47 35 25 20 17 15 15 15 16 16 12 7 5 0 351 345 338 324 309 298 292 290
50 39 33 22 14 360 345 350 6 8 7 8 7 5 1 5 28 50 86 81 68 55 42 34 27 23 20 20 20 20 19 15 10 6 2 355 348 342 337 326 314 307 300
45 42 36 26 5 350 356 359 0 6 9 15 13 4 11 20 25 44 65 77 74 64 52 41 34 29 26 24 22 20 18 16 11 6 2 359 353 347 341 334 331 326 319
39 41 35 26 7 356 359 358 13 10 6 11 9 354 6 18 25 50 61 63 58 58 53 46 37 30 27 23 19 19 18 14 9 2 358 357 357 354 348 345 342 335 330
32 44 38 25 11 8 0 1 24 10 356 359 348 334 4 26 23 57 68 72 67 56 47 46 41 35 29 23 17 16 16 14 11 6 1 356 351 347 345 345 346 343 337
28 32 42 29 14 20 8 6 12 10 354 351 336 334 308 159 67 65 61 68 66 59 44 33 33 29 31 24 19 13 10 8 8 6 2 358 353 350 348 350 350 348 342
25 29 31 32 23 23 13 6 10 10 3 356 353 330 304 141 108 96 75 62 58 58 47 37 38 27 18 24 19 13 6 3 3 4 3 1 358 354 354 355 353 350 347
25 21 24 28 22 16 18 13 15 6 350 14 16 337 338 334 330 122 106 100 58 55 52 46 45 34 33 34 14 12 5 359 356 357 357 357 356 356 357 355 353 349 347
49 29 18 26 15 21 22 5 17 22 350 347 36 47 21 316 323 300 220 141 101 73 67 48 52 30 33 44 19 7 3 355 350 350 350 349 349 349 351 351 350 347 348
82 41 20 24 17 14 7 349 37 13 6 340 341 12 202 214 314 312 297 259 129 98 101 57 50 33 37 45 25 14 0 350 346 345 343 343 344 344 344 346 346 345 346
144 105 36 23 13 15 12 7 16 13 360 348 333 329 320 309 246 230 289 306 315 272 177 152 138 57 31 32 18 7 356 346 343 341 339 340 340 340 341 342 342 342 342
179 174 160 332 345 7 358 345 336 347 334 328 323 323 322 319 325 300 287 303 297 279 265 224 190 180 107 37 360 358 347 339 337 336 336 338 341 342 342 340 339 340 338
191 196 186 215 235 268 288 312 321 309 291 295 295 302 320 284 305 305 292 293 294 285 250 235 205 164 75 53 354 351 339 333 333 332 332 336 339 339 339 337 337 338 336
199 179 189 213 220 223 269 277 271 263 256 250 265 265 266 274 273 260 260 292 300 292 269 256 247 161 65 15 336 345 325 325 328 329 330 334 335 336 336 338 338 338 337
203 187 200 218 222 216 229 245 256 265 253 236 241 245 245 254 245 251 263 221 235 282 289 261 278 284 317 315 321 317 306 314 319 320 323 328 330 333 334 336 337 338 337
211 207 218 220 223 224 222 226 244 254 253 241 232 239 249 251 239 226 235 249 227 231 266 283 276 288 311 330 320 316 301 314 316 317 318 320 323 327 331 334 336 336 335
218 218 221 221 223 228 225 221 231 236 240 246 242 233 241 246 246 233 226 233 238 231 258 280 285 294 306 308 316 310 302 300 302 312 315 317 319 324 327 330 331 335 336
221 218 219 224 229 230 227 224 233 233 233 238 243 241 242 239 245 242 235 235 237 234 243 270 287 294 288 288 298 304 310 312 304 309 316 317 322 327 328 326 328 331 334
223 220 217 222 227 230 232 233 233 233 231 232 233 238 243 236 243 242 238 240 243 249 241 255 274 283 288 296 307 310 310 310 309 311 315 322 324 325 326 324 324 326 329
224 226 226 226 225 227 231 235 237 239 239 238 234 233 235 235 242 242 242 240 242 251 254 256 266 277 282 289 298 303 311 314 312 312 315 321 319 323 323 321 323 325 324
233 230 229 231 228 226 227 229 241 244 241 246 244 240 235 233 238 241 244 237 237 244 252 256 264 274 276 291 285 286 298 310 307 301 325 314 310 305 309 313 318 319 321
237 235 234 232 232 235 238 238 241 242 243 241 246 246 243 240 244 251 254 252 242 239 241 246 257 260 267 268 276 291 301 322 309 320 332 306 299 292 289 284 306 316 319
235 238 238 233 235 240 244 245 245 242 241 244 245 246 251 247 246 242 255 260 260 259 253 245 248 250 255 260 273 288 283 280 272 284 313 291 286 285 287 302 311 312 315
237 238 241 238 240 243 241 243 245 241 241 246 245 243 244 249 243 237 238 247 250 255 256 251 243 247 247 243 232 250 262 282 280 278 268 278 291 288 298 294 304 306 315
243 244 241 238 242 248 242 243 237 228 240 250 252 250 245 244 253 251 241 247 257 258 256 250 250 253 259 265 260 251 271 288 291 287 270 270 296 309 296 284 299 314 319
239 243 246 239 238 245 245 241 233 221 238 249 253 253 253 254 259 259 243 239 255 258 253 260 256 260 258 262 265 234 217 242 269 281 274 293 299 334 314 295 296 311 313